Regional Weather Roundup
Issued by NWS Charleston, WV

Home | Current Version | Previous Version | Text Only | Print | Product List | Glossary Off
Versions: 1 2 3 4 5 6 7 8 9 10 11 12 13 14 15 16 17 18 19 20 21 22 23 24 25 26 27 28 29 30 31 32 33 34 35 36 37 38 39 40 41 42 43 44 45 46 47 48 49 50

000
ASUS41 KRLX 231610
RWRRLX
West Virginia Regional Weather Roundup
National Weather Service Charleston WV
1200 PM EDT WED JUL 23 2014

Note: "fair" indicates few or no clouds below 12,000 feet with no
significant weather and/or obstructions to visibility.

WVZ003-231700-
Northern Panhandle of West Virginia

CITY           SKY/WX    TMP DP  RH WIND       PRES   REMARKS
WHEELING       CLOUDY    80  70  71 SW9       29.96S
$$

WVZ009-231700-
Northwest West Virginia

CITY           SKY/WX    TMP DP  RH WIND       PRES   REMARKS
PARKERSBURG    MOSUNNY  N/A N/A N/A S8        29.97F
$$

WVZ006-231700-
Western West Virginia

CITY           SKY/WX    TMP DP  RH WIND       PRES   REMARKS
HUNTINGTON     SUNNY     82  73  74 S6        30.01F
$$

WVZ015-231700-
West Central West Virginia

CITY           SKY/WX    TMP DP  RH WIND       PRES   REMARKS
CHARLESTON     MOSUNNY   82  73  74 SW6       30.02F
$$

WVZ031-231700-
North Central West Virginia

CITY           SKY/WX    TMP DP  RH WIND       PRES   REMARKS
CLARKSBURG     MOSUNNY   81  70  69 SW8       30.00F
MORGANTOWN     MOSUNNY   85  68  56 SW10G18   29.99F
$$

WVZ035-042-045-231700-
South Central West Virginia

CITY           SKY/WX    TMP DP  RH WIND       PRES   REMARKS
BECKLEY        PTSUNNY   76  68  76 SW8       30.15S
BLUEFIELD      CLOUDY    78  65  63 N7        30.18S
LEWISBURG      PTSUNNY   82  66  57 NW6       30.11F
$$

WVZ047-231700-
Northern Mountains of West Virginia

CITY           SKY/WX    TMP DP  RH WIND       PRES   REMARKS
ELKINS         PTSUNNY   80  68  66 VRB6      30.07F
$$

WVZ052-231700-
Eastern Panhandle of West Virginia

CITY           SKY/WX    TMP DP  RH WIND       PRES   REMARKS
MARTINSBURG    MOSUNNY   89  69  51 SW5       29.95F
PETERSBURG     CLOUDY    82  62  51 SW5       30.00S
$$


USA.gov is the U.S. government's official web portal to all federal, state and local government web resources and services.